SCP
0 0 0 0 0 0 0 0 0 0 0 0 0 0 0 0 0 0 0 0 0 0
0 0 0 0 0 0 0 0 0 0 0 0 0 0 0 0 0 0 0 0 0 0
0 0 0 0 0 0 0 0 0 0 0 0 0 0 0 0 0 0 0 0 0 0
0 0 0 0 0 1 0 0 0 0 0 0 0 0 0 0 0 0 0 0 0 0
0 0 0 0 0 0 0 1 0 0 0 0 0 0 0 0 0 0 0 0 0 0
0 0 0 0 0 0 0 0 0 0 0 0 0 0 0 0 0 0 0 0 0 0
0 0 0 0 0 0 0 0 0 0 0 0 0 0 0 0 0 0 0 0 0 0
0 0 0 0 0 0 0 0 0 0 0 0 0 0 0 0 0 0 0 0 0 0
-0 0 0 0 0 0 0 0 0 0 0 0 0 0 0 0 0 0 0 0 0 0
-0 -0 -0 0 0 0 0 0 0 0 0 0 0 0 0 0 0 0 0 0 0 0
-0 -0 -0 -0 -0 -0 -0 0 0 0 0 0 0 0 0 0 0 0 0 0 0 0
-0 -0 -0 -0 -0 -0 -0 -0 0 0 0 0 0 0 0 0 0 0 0 0 0 0
-0 -0 -0 -0 -0 -0 -0 -0 -0 0 0 0 0 0 0 0 0 0 0 0 0 0
-0 -0 -0 -0 -0 -0 -0 0 -0 -0 -0 0 0 0 0 0 0 0 0 0 0 0
Wind_Speed_500mb
76 86 98 101 104 110 113 113 108 101 94 89 94 99 106 112 113 112 113 110 111 111
62 71 86 94 99 102 105 109 106 103 100 92 84 91 97 102 110 114 114 115 112 114
46 61 78 82 90 95 98 103 103 104 101 95 91 90 92 96 101 106 112 114 116 117
35 36 40 61 76 79 84 92 102 105 105 103 99 96 97 95 96 103 107 109 113 116
46 45 46 47 53 65 79 82 92 98 102 104 105 99 100 97 98 104 108 108 108 113
54 54 53 54 54 54 56 64 78 87 93 99 99 98 102 98 96 96 108 106 105 104
61 59 61 62 59 61 59 58 59 72 85 93 97 101 104 109 94 102 106 105 98 105
73 69 67 66 65 64 65 67 67 62 66 82 90 98 101 106 107 99 108 106 107 107
80 80 77 74 73 73 70 68 71 72 68 68 78 90 96 102 101 99 112 111 118 111
88 89 89 85 78 75 76 74 76 77 77 78 78 78 83 92 98 105 105 117 115 119
88 90 90 91 90 86 81 79 80 82 83 86 89 85 80 79 85 98 113 116 114 115
96 92 91 93 93 92 90 88 87 82 83 91 97 91 85 78 80 94 104 112 114 116
98 95 94 91 93 93 91 92 93 94 90 85 95 94 91 82 81 89 97 101 111 117
97 94 91 90 86 88 90 92 94 96 94 92 87 87 84 83 80 86 93 101 108 111
Wind_Direction_500mb
277 271 269 267 266 266 267 270 272 271 271 272 273 265 261 259 258 257 257 255 254 252
293 286 278 275 274 272 271 271 272 272 273 272 272 274 268 263 262 259 258 258 257 255
310 295 288 284 278 276 277 275 270 270 274 276 274 269 269 266 264 260 260 259 258 258
321 319 299 286 286 283 282 281 277 273 274 275 274 273 267 267 267 263 261 260 259 260
326 315 313 309 296 290 286 285 281 277 275 274 274 272 270 270 270 264 262 261 259 260
334 326 315 310 306 299 291 287 282 277 269 265 264 267 268 270 269 272 266 262 260 262
339 332 326 318 307 303 299 292 287 281 276 270 269 265 265 265 271 268 271 264 266 266
332 329 327 322 318 304 297 296 294 286 280 275 269 268 265 265 267 272 268 272 271 267
327 324 322 320 317 317 306 294 291 289 285 277 273 272 268 265 267 267 267 270 267 270
324 321 320 318 315 313 314 307 292 287 285 282 279 275 270 269 265 265 266 265 264 262
322 319 317 315 315 313 310 308 305 292 285 283 279 278 278 274 266 265 262 261 266 265
324 321 318 315 313 311 308 304 301 303 293 283 280 281 281 279 267 260 259 261 261 261
325 324 320 318 314 311 309 304 301 297 298 296 286 281 281 282 272 261 260 262 263 259
325 323 322 319 316 314 311 306 303 299 296 295 297 291 283 280 276 262 260 260 262 262
Wind_Speed_850mb
76 86 98 101 104 110 113 113 108 101 94 89 94 99 106 112 113 112 113 110 111 111
62 71 86 94 99 102 105 109 106 103 100 92 84 91 97 102 110 114 114 115 112 114
46 61 78 82 90 95 98 103 103 104 101 95 91 90 92 96 101 106 112 114 116 117
35 36 40 61 76 79 84 92 102 105 105 103 99 96 97 95 96 103 107 109 113 116
46 45 46 47 53 65 79 82 92 98 102 104 105 99 100 97 98 104 108 108 108 113
54 54 53 54 54 54 56 64 78 87 93 99 99 98 102 98 96 96 108 106 105 104
61 59 61 62 59 61 59 58 59 72 85 93 97 101 104 109 94 102 106 105 98 105
73 69 67 66 65 64 65 67 67 62 66 82 90 98 101 106 107 99 108 106 107 107
80 80 77 74 73 73 70 68 71 72 68 68 78 90 96 102 101 99 112 111 118 111
88 89 89 85 78 75 76 74 76 77 77 78 78 78 83 92 98 105 105 117 115 119
88 90 90 91 90 86 81 79 80 82 83 86 89 85 80 79 85 98 113 116 114 115
96 92 91 93 93 92 90 88 87 82 83 91 97 91 85 78 80 94 104 112 114 116
98 95 94 91 93 93 91 92 93 94 90 85 95 94 91 82 81 89 97 101 111 117
97 94 91 90 86 88 90 92 94 96 94 92 87 87 84 83 80 86 93 101 108 111
Wind_Direction_850mb
277 271 269 267 266 266 267 270 272 271 271 272 273 265 261 259 258 257 257 255 254 252
293 286 278 275 274 272 271 271 272 272 273 272 272 274 268 263 262 259 258 258 257 255
310 295 288 284 278 276 277 275 270 270 274 276 274 269 269 266 264 260 260 259 258 258
321 319 299 286 286 283 282 281 277 273 274 275 274 273 267 267 267 263 261 260 259 260
326 315 313 309 296 290 286 285 281 277 275 274 274 272 270 270 270 264 262 261 259 260
334 326 315 310 306 299 291 287 282 277 269 265 264 267 268 270 269 272 266 262 260 262
339 332 326 318 307 303 299 292 287 281 276 270 269 265 265 265 271 268 271 264 266 266
332 329 327 322 318 304 297 296 294 286 280 275 269 268 265 265 267 272 268 272 271 267
327 324 322 320 317 317 306 294 291 289 285 277 273 272 268 265 267 267 267 270 267 270
324 321 320 318 315 313 314 307 292 287 285 282 279 275 270 269 265 265 266 265 264 262
322 319 317 315 315 313 310 308 305 292 285 283 279 278 278 274 266 265 262 261 266 265
324 321 318 315 313 311 308 304 301 303 293 283 280 281 281 279 267 260 259 261 261 261
325 324 320 318 314 311 309 304 301 297 298 296 286 281 281 282 272 261 260 262 263 259
325 323 322 319 316 314 311 306 303 299 296 295 297 291 283 280 276 262 260 260 262 262